STARLINK-34744

Last updated on Tue Aug 26 2025 00:02:05 GMT+0000 (Coordinated Universal Time)

1 64952U 25158W 25237.62290869 .00025368 00000+0 65025-3 0 9992 2 64952 97.6044 100.2074 0002159 98.1515 261.9975 15.39353633 5812
UTC large
Height (km)
Speed (km/s)
/
Latitude / Longitude
Inclination (degrees)
Orbital Period (minutes)
Azimuth
Elevation
Range (km)
Doppler Factor

Next 0 passes for location: London (51.5072 / 0.1276)

Sorry there are no passes over London.